sat.trackr.live / text

‹ back to catalog

STARLINK-30704

NORAD 57946 · 2023-148M

PAYLOAD ACTIVE UNKNOWN

§ Identity

Operator
Country
US
Launch date
2023-09-25
Launch site
AFWTR
Launch vehicle
Mass (kg)
RCS (m²)

Purposes: comms

External: N2YO · Heavens-Above · Gunter

§ Orbital elements

Epoch: 2026-05-25T03:30:11.579040Z

Period
94.11 min
Inclination
53.1603°
Eccentricity
0.0001815
Mean motion
15.30190246 rev/d
Perigee alt
474.0 km
Apogee alt
476.5 km
Semi-major
6,853.4 km
B*
2.1363e-5
RAAN
106.3110°
Arg perigee
78.1028°
Mean anomaly
282.0177°
Rev number
14,902

§ Raw data

STARLINK-307041 57946U 23148M   26145.14596735  .00000273  00000+0  21363-4 0  99972 57946  53.1603 106.3110 0001815  78.1028 282.0177 15.30190246149028

JSON: /api/v1/satellites/57946 · /tle

For live sub-satellite position, see the globe view (requires WebGL).

§ Visibility from observer

Set your observer location to see the next 7 days of passes ≥ 10°. The values pass through the URL so the page stays shareable.

No JS? Fill the form by hand. The geolocation button needs JavaScript.